Regional Weather Roundup
Issued by NWS

Home | Current Version | Previous Version | Graphics & Text | Print | Product List | Glossary On
Versions: 1 2 3 4 5 6 7 8 9 10 11 12 13 14 15 16 17 18 19 20 21 22 23 24 25 26 27 28 29 30 31 32 33 34 35 36 37 38 39 40 41 42 43 44 45 46 47 48 49 50
971
ASUS43 KIND 111009
RWRIN

WEATHER ROUNDUP FOR INDIANA
NATIONAL WEATHER SERVICE INDIANAPOLIS IN
500 AM EST THU FEB 11 2016

NOTE: "FAIR" INDICATES FEW OR NO CLOUDS BELOW 12,000 FEET WITH NO
SIGNIFICANT WEATHER AND/OR OBSTRUCTIONS TO VISIBILITY.

* - STATION DOES NOT REPORT WEATHER SUCH AS PRECIPITATION OR FOG.

+ - STATION NOT QUALITY CONTROLLED BY THE NATIONAL WEATHER SERVICE.
    USE DATA WITH CAUTION...ESPECIALLY DEWPOINT AND RELATIVE
    HUMIDITY OBSERVATIONS.

INZ001>003-010>013-019-020-111100-
NORTHWEST INDIANA

CITY           SKY/WX    TMP DP  RH WIND       PRES   REMARKS
KNOX *+        PTCLDY    12   5  73 W10       30.17R WCI  -1
LA PORTE +     CLOUDY    19  10  67 NW7       30.15R WCI  10
MICHIGAN CITY+ CLOUDY    19   7  58 NW10G18   30.17R WCI   8
MONTICELLO +   CLEAR      7  -1  68 NW5       30.18S WCI  -2
RENSSELAER +   CLEAR     12   3  67 W6        30.19S WCI   3
VALPARAISO     CLOUDY    13   5  70 W8        30.17R WCI   2

$$

LMZ046-743>745-111100-
SOUTHERN LAKE MICHIGAN

STATION/POSITION TIME  TEMP    WIND        PRES    WAVE
                       AIR SEA DIR/SP/G            HT
                 (UTC) (F)     (DEG/KT/KT) (MB)    (FT)
BURNS HARBOR     0901   18     320/ 13/ 20 1022.0R
MICHIGAN CITY    0900   18     290/ 18/ 21   N/A

$$

INZ004-005-014>016-021>024-111100-
NORTH CENTRAL INDIANA

CITY           SKY/WX    TMP DP  RH WIND       PRES   REMARKS
GOSHEN         CLOUDY    12   8  84 W5        30.12R WCI   4
LOGANSPORT +   CLEAR     10   1  67 NW6       30.17S WCI   1
PERU/GRISSOM   CLEAR      5   0  80 W6        30.14R WCI  -6
ROCHESTER +    CLEAR     14   3  62 W7        30.15R WCI   4
SOUTH BEND     CLOUDY    14  11  87 CALM      30.13R
WARSAW +       CLOUDY    12   9  85 W7        30.13R WCI   2

$$

INZ006>009-017-018-025>027-111100-
NORTHEAST INDIANA

CITY           SKY/WX    TMP DP  RH WIND       PRES   REMARKS
ANGOLA *+      CLOUDY    12  10  92 W5        30.08S WCI   4
AUBURN +       LGT SNOW  18  12  79 NW5       30.12R WCI  11
FORT WAYNE     MOCLDY    15   7  70 W8        30.13S WCI   4
HUNTINGTON +   CLEAR      8   2  74 W6        30.14R WCI  -2

$$

INZ028-029-035-036-043>045-051>053-111100-
WEST CENTRAL INDIANA

CITY           SKY/WX    TMP DP  RH WIND       PRES   REMARKS
GREENCASTLE +  CLOUDY    14   3  62 CALM      30.18R
LAFAYETTE      CLOUDY    11   5  77 NW7       30.19R WCI   0
TERRE HAUTE    PTCLDY    13   6  74 NW5       30.20S WCI   5

$$

INZ030>032-037>040-046>048-054>057-064-065-111100-
CENTRAL INDIANA

CITY           SKY/WX    TMP DP  RH WIND       PRES   REMARKS
FRANKFORT +    PTCLDY     8  -1  66 W3        30.18R
INDIANAPOLIS   NOT AVBL
-EAGLE CREEK   CLOUDY    15   6  67 W6        30.16R WCI   6
KOKOMO *+      PTCLDY     7   0  72 NW7       30.16R WCI  -5
MARION +       CLEAR      1  -7  68 W5        30.16R WCI  -9
MT COMFORT *+  CLOUDY    14   7  73 NW5       30.16R WCI   6
SHELBYVILLE    CLOUDY    16   7  67 W3        30.16R
ZIONSVILLE +   CLOUDY    10   5  79 W3        30.16R

$$

INZ033-034-041-042-049-050-058-059-111100-
EAST CENTRAL INDIANA

CITY           SKY/WX    TMP DP  RH WIND       PRES   REMARKS
MUNCIE         CLEAR      8   4  83 W5        30.14S WCI   0

$$

INZ060-061-067>069-081>083-085>088-111100-
SOUTHWEST INDIANA

CITY           SKY/WX    TMP DP  RH WIND       PRES   REMARKS
EVANSVILLE     CLOUDY    24  17  74 NE8       30.21R WCI  15
HUNTINGBURG *+ CLOUDY    21  14  73 N5        30.21R WCI  15
WASHINGTON +   CLOUDY    20  13  74 N5        30.21R WCI  14

$$

INZ062-063-066-070>080-084-089>092-111100-
SOUTH CENTRAL AND SOUTHEAST INDIANA

CITY           SKY/WX    TMP DP  RH WIND       PRES   REMARKS
BEDFORD +      MOCLDY    16  10  79 CALM      30.19R
BLOOMINGTON    PTCLDY     8   5  87 CALM      30.17R
MADISON *+     PTCLDY    10   7  85 CALM      30.18F
NORTH VERNON + CLOUDY    10   9  92 CALM      30.18R
SEYMOUR +      PTCLDY    16   9  73 NW3       30.19S

$$





USA.gov is the U.S. government's official web portal to all federal, state and local government web resources and services.